Regional Weather Roundup
Issued by NWS

Home | Current Version | Previous Version | Graphics & Text | Print | Product List | Glossary On
Versions: 1 2 3 4 5 6 7 8 9 10 11 12 13 14 15 16 17 18 19 20 21 22 23 24 25 26 27 28 29 30 31 32 33 34 35 36 37 38 39 40 41 42 43 44 45 46 47 48 49 50
000
ASUS45 KABQ 240601
RWRNM
NEW MEXICO REGIONAL WEATHER ROUNDUP
NATIONAL WEATHER SERVICE ALBUQUERQUE NM
1200 AM MDT FRI MAR 24 2017

NOTE: "FAIR" MEANS FEW OR NO CLOUDS BELOW 12,000 FEET AGL WITH NO
       SIGNIFICANT WEATHER OR OBSTRUCTIONS TO VISION.

      THIS PRODUCT IS RELEASED AS TWO VERSIONS.  ONE VERSION NEAR
      THE TOP OF THE HOUR CONTAINING PRELIMINARY DATA FROM ALBUQUERQUE
      AND OTHER STATIONS.  A FINAL VERSION WITH ADDITIONAL DATA IS
      ISSUED ABOUT 10 MINUTES AFTER THE HOUR.

NMZ501-503-504-510>518-240700-
NORTHWEST PLATEAU/NORTHCENTRAL MOUNTAINS

CITY           SKY/WX    TMP DP  RH WIND       PRES   REMARKS
FARMINGTON     CLOUDY    41  50 100 W18G25    29.83R
6HR MIN TEMP:  40; 6HR MAX TEMP:  42; 6HR PCP: TRACE;

LOS ALAMOS     CLOUDY    34  27  75 S14G20    29.77F WCI  25
SANTA FE       CLOUDY    36  31  82 SW20G26   29.81R WCI  25
6HR MIN TEMP:  33; 6HR MAX TEMP:  41; 6HR PCP:  0.04;

TAOS             N/A     32  25  74 SW20G26   29.72S WCI  20
ANGEL FIRE     LGT SNOW  28  26  89 W18G33    29.68R VSB 1   WCI  16

$$
NMZ402-403-502-505>509-240700-
WESTCENTRAL MOUNTAINS/SOUTHWEST MOUNTAINS

CITY           SKY/WX    TMP DP  RH WIND       PRES   REMARKS
GALLUP         CLOUDY    35  32  88 W20       29.95F WCI  24
6HR MIN TEMP:  33; 6HR MAX TEMP:  41; 6HR PCP:  0.03;

GRANTS         CLOUDY    35  30  81 W14       29.93F WCI  26
SILVER CITY    FAIR      38  30  71 NW16      30.08F WCI  29

$$
NMZ407-409-411-412-240700-
SOUTHERN DESERTS

CITY           SKY/WX    TMP DP  RH WIND       PRES   REMARKS
DEMING         FAIR      44  30  57 NW14      30.08R
6HR MIN TEMP:  43; 6HR MAX TEMP:  57;

LAS CRUCES     FAIR      46  26  46 W23G29    30.03S
HOLLOMAN AFB   FAIR      46  23  39 W8        30.02R
ALAMOGORDO     FAIR      46  23  39 SE3       30.01S
T OR C         FAIR      45  21  38 CALM      29.98S
6HR MIN TEMP:  45; 6HR MAX TEMP:  56;


$$
NMZ519>523-240700-
CENTRAL VALLEYS/CENTRAL HIGHLANDS

CITY           SKY/WX    TMP DP  RH WIND       PRES   REMARKS
ALBUQUERQUE    MOCLDY    43  30  60 SW20G29   29.89S
6HR MIN TEMP:  42; 6HR MAX TEMP:  49; 6HR PCP: TRACE;

DOUBLE EAGLE   FAIR      37  29  74 SW14      29.87R WCI  28
MORIARTY ARPT  FAIR      38  31  76 W18G25    29.86R WCI  28
6HR MIN TEMP:  37; 6HR MAX TEMP:  43;

CLINES CORNERS CLOUDY    33  27  78 W25G33    29.84R WCI  20
6HR MIN TEMP:  32; 6HR MAX TEMP:  36; 6HR PCP: TRACE;

BELEN          FAIR      42  28  58 W20G26    29.91S
6HR MIN TEMP:  40; 6HR MAX TEMP:  49;

SOCORRO        FAIR      46  20  35 CALM      29.92R
6HR MIN TEMP:  46; 6HR MAX TEMP:  54;


$$
NMZ524>526-539-540-240700-
SOUTHCENTRAL MOUNTAINS

CITY           SKY/WX    TMP DP  RH WIND       PRES   REMARKS
RUIDOSO        NOT AVBL

$$
NMZ527>531-240700-
NORTHEAST HIGHLANDS/NORTHEAST PLAINS

CITY           SKY/WX    TMP DP  RH WIND       PRES   REMARKS
LAS VEGAS      FAIR      34  25  69 SW26G32   29.70R WCI  21
6HR MIN TEMP:  34; 6HR MAX TEMP:  47;

RATON          FAIR      44  24  45 W22G28    29.47F
6HR MIN TEMP:  40; 6HR MAX TEMP:  65; 6HR PCP: TRACE;

CLAYTON        FAIR      44  34  67 S24       29.52F
6HR MIN TEMP:  43; 6HR MAX TEMP:  77;


$$
NMZ532>537-240700-
EASTCENTRAL PLAINS

CITY           SKY/WX    TMP DP  RH WIND       PRES   REMARKS
SANTA ROSA     FAIR      44  28  52 SW25G44   29.74R
TUCUMCARI      FAIR      51  26  37 W38G54    29.64F
6HR MIN TEMP:  51; 6HR MAX TEMP:  83;

CANNON AFB     FAIR      49  25  38 W20G26    29.79F
6HR MIN TEMP:  47; 6HR MAX TEMP:  78; 6HR PCP:  0.01;

CLOVIS AIRPORT FAIR      48  25  40 W21G29    29.79S

$$
NMZ028-029-538-240700-
SOUTHEAST PLAINS

CITY           SKY/WX    TMP DP  RH WIND       PRES   REMARKS
ROSWELL        FAIR      54  19  25 W22G31      N/A
6HR MIN TEMP:  54; 6HR MAX TEMP:  70;

ARTESIA        FAIR      55  21  26 W30G39    29.88S
CARLSBAD       FAIR      57  18  21 MISG      29.87R
6HR MIN TEMP:  57; 6HR MAX TEMP:  73;

HOBBS          FAIR      55  16  21 W14G21    29.91R


$$



USA.gov is the U.S. government's official web portal to all federal, state and local government web resources and services.